Change the Weather History Date:

Saturday, January 18, 2014

  Actual Average Record
Temperature  
Mean Temperature 16 °F -  
Max Temperature 24 °F 25 °F 56 °F (1990)
Min Temperature 8 °F 10 °F -18 °F (1976)
Degree Days  
Heating Degree Days 49    
Moisture  
Dew Point 7 °F    
Average Humidity 76    
Maximum Humidity 93    
Minimum Humidity 62    
Precipitation  
Precipitation 0.00 in - - ()
Sea Level Pressure  
Sea Level Pressure 29.82 in    
Wind  
Wind Speed 11 mph (SW)    
Max Wind Speed 18 mph    
Max Gust Speed 22 mph    
Visibility 8 miles    
Events      
Averages and records for this station are not official NWS values.
T = Trace of Precipitation, MM = Missing Value Source: NWS Daily Summary

Daily Weather History Graph

Daily Weather History Graph

Search for Another Location

Airport or City:

Trip Planner

Search our weather history database for the weather conditions in past years. The results will help you decide how hot, cold, wet, or windy it might be!

Date:

Astronomy

Jan. 18, 2014 Rise Set
Actual Time 7:41 AM EST 5:13 PM EST
Civil Twilight 7:10 AM EST 5:44 PM EST
Nautical Twilight 6:36 AM EST 6:19 PM EST
Astronomical Twilight 6:02 AM EST 6:52 PM EST
Moon 7:58 PM EST (1/18) 8:37 AM EST (1/18)
Length of Visible Light 10h 33m
Length of Day
9h 32m
Waning Gibbous, 94% of the Moon is Illuminated
Jan 18
Waning Gibbous
Jan 24
Last Quarter
Jan 30
New
Feb 6
First Quarter
Feb 14
Full

Hourly Weather History & Observations

Time (EST) Temp. Windchill Dew Point Humidity Pressure Visibility Wind Dir Wind Speed Gust Speed Precip Events Conditions
12:15 AM 24.8 °F 14.0 °F 21.2 °F 86% 29.77 in 8.0 mi WSW 11.5 mph - N/A   Overcast
12:35 AM 24.8 °F 12.9 °F 21.2 °F 86% 29.77 in 2.5 mi WSW 13.8 mph - N/A   Overcast
12:55 AM 24.8 °F 12.4 °F 19.4 °F 80% 29.77 in 9.0 mi WSW 15.0 mph - N/A   Overcast
1:15 AM 24.8 °F 14.6 °F 21.2 °F 86% 29.77 in 7.0 mi West 10.4 mph - N/A   Overcast
1:35 AM 24.8 °F 14.0 °F 19.4 °F 80% 29.77 in 7.0 mi West 11.5 mph - N/A   Overcast
1:55 AM 24.8 °F 12.4 °F 19.4 °F 80% 29.78 in 5.0 mi West 15.0 mph 18.4 mph N/A   Overcast
2:15 AM 21.2 °F 7.8 °F 19.4 °F 93% 29.79 in 1.5 mi SW 15.0 mph 21.9 mph N/A   Overcast
2:35 AM 21.2 °F 8.3 °F 17.6 °F 86% 29.79 in 2.5 mi WSW 13.8 mph 17.3 mph N/A   Overcast
2:55 AM 19.4 °F 7.2 °F 15.8 °F 86% 29.79 in 8.0 mi WSW 11.5 mph - N/A   Overcast
3:15 AM 19.4 °F 7.2 °F 15.8 °F 86% 29.79 in 5.0 mi West 11.5 mph - N/A   Overcast
3:35 AM 19.4 °F 8.6 °F 15.8 °F 86% 29.79 in 2.0 mi WSW 9.2 mph - N/A   Overcast
3:55 AM 17.6 °F 5.0 °F 12.2 °F 79% 29.79 in 5.0 mi WSW 11.5 mph - N/A   Overcast
4:15 AM 17.6 °F 3.7 °F 10.4 °F 73% 29.79 in 7.0 mi SW 13.8 mph 19.6 mph N/A   Overcast
4:35 AM 15.8 °F -0.6 °F 8.6 °F 73% 29.79 in 10.0 mi WSW 18.4 mph - N/A   Overcast
4:55 AM 15.8 °F 0.9 °F 5.0 °F 62% 29.79 in 10.0 mi WSW 15.0 mph 18.4 mph N/A   Overcast
5:15 AM 14.0 °F -0.8 °F 6.8 °F 73% 29.79 in 10.0 mi WSW 13.8 mph - N/A   Overcast
5:35 AM 14.0 °F -0.2 °F 6.8 °F 73% 29.80 in 10.0 mi WSW 12.7 mph - N/A   Overcast
5:55 AM 12.2 °F -4.3 °F 3.2 °F 67% 29.80 in 10.0 mi WSW 16.1 mph - N/A   Overcast
6:15 AM 12.2 °F -3.7 °F 3.2 °F 67% 29.80 in 10.0 mi SW 15.0 mph 18.4 mph N/A   Overcast
6:35 AM 10.4 °F -6.6 °F 1.4 °F 67% 29.81 in 10.0 mi WSW 16.1 mph 19.6 mph N/A   Scattered Clouds
6:55 AM 10.4 °F -7.2 °F 1.4 °F 67% 29.81 in 10.0 mi WSW 17.3 mph - N/A   Clear
7:15 AM 8.6 °F -8.3 °F 1.4 °F 73% 29.82 in 10.0 mi SW 15.0 mph 21.9 mph N/A   Mostly Cloudy
7:35 AM 8.6 °F -6.3 °F 1.4 °F 73% 29.82 in 10.0 mi SW 11.5 mph 16.1 mph N/A   Overcast
7:55 AM 8.6 °F -7.7 °F 1.4 °F 73% 29.82 in 7.0 mi WSW 13.8 mph - N/A   Overcast
8:15 AM 8.6 °F -5.5 °F 1.4 °F 73% 29.83 in 3.0 mi SW 10.4 mph 16.1 mph N/A   Overcast
8:35 AM 8.6 °F -5.5 °F 1.4 °F 73% 29.83 in 3.0 mi SW 10.4 mph - N/A   Overcast
8:55 AM 8.6 °F -3.7 °F 3.2 °F 79% 29.83 in 3.0 mi SW 8.1 mph - N/A   Overcast
9:15 AM 8.6 °F -4.7 °F 3.2 °F 79% 29.83 in 2.5 mi SW 9.2 mph - N/A   Overcast
9:35 AM 10.4 °F -1.5 °F 5.0 °F 79% 29.84 in 2.0 mi SSW 8.1 mph - N/A   Overcast
9:55 AM 10.4 °F -3.3 °F 3.2 °F 73% 29.84 in 2.5 mi SW 10.4 mph - N/A   Overcast
10:15 AM 10.4 °F -3.3 °F 3.2 °F 73% 29.85 in 2.0 mi SW 10.4 mph - N/A   Overcast
10:35 AM 10.4 °F -1.5 °F 6.8 °F 85% 29.85 in 2.0 mi SW 8.1 mph - N/A   Overcast
10:55 AM 10.4 °F -5.4 °F 5.0 °F 79% 29.85 in 2.0 mi WSW 13.8 mph - N/A   Overcast
11:15 AM 12.2 °F -3.1 °F 5.0 °F 73% 29.85 in 2.5 mi WSW 13.8 mph - N/A   Overcast
11:35 AM 12.2 °F -0.2 °F 6.8 °F 79% 29.85 in 2.5 mi SW 9.2 mph - N/A   Overcast
11:55 AM 12.2 °F -0.2 °F 5.0 °F 73% 29.84 in 4.0 mi SW 9.2 mph - N/A   Overcast
12:15 PM 12.2 °F -1.0 °F 6.8 °F 79% 29.84 in 9.0 mi WSW 10.4 mph - N/A   Overcast
12:35 PM 12.2 °F -1.0 °F 6.8 °F 79% 29.83 in 10.0 mi SW 10.4 mph 16.1 mph N/A   Overcast
12:55 PM 12.2 °F -1.8 °F 6.8 °F 79% 29.83 in 10.0 mi WSW 11.5 mph - N/A   Overcast
1:15 PM 14.0 °F 2.0 °F 6.8 °F 73% 29.82 in 10.0 mi West 9.2 mph - N/A   Overcast
1:35 PM 14.0 °F 2.0 °F 6.8 °F 73% 29.83 in 10.0 mi West 9.2 mph - N/A   Overcast
1:55 PM 14.0 °F 1.2 °F 6.8 °F 73% 29.82 in 10.0 mi West 10.4 mph - N/A   Overcast
2:15 PM 14.0 °F -0.2 °F 6.8 °F 73% 29.82 in 7.0 mi WSW 12.7 mph - N/A   Overcast
2:35 PM 14.0 °F 1.2 °F 6.8 °F 73% 29.83 in 5.0 mi West 10.4 mph - N/A   Overcast
2:55 PM 15.8 °F 3.4 °F 6.8 °F 68% 29.83 in 6.0 mi WSW 10.4 mph - N/A   Overcast
3:15 PM 15.8 °F 5.1 °F 6.8 °F 68% 29.83 in 7.0 mi WSW 8.1 mph - N/A   Overcast
3:35 PM 15.8 °F 5.1 °F 6.8 °F 68% 29.84 in 10.0 mi WSW 8.1 mph - N/A   Overcast
3:55 PM 15.8 °F 4.2 °F 6.8 °F 68% 29.84 in 10.0 mi SW 9.2 mph - N/A   Overcast
4:15 PM 15.8 °F 5.1 °F 6.8 °F 68% 29.83 in 10.0 mi WSW 8.1 mph - N/A   Overcast
4:35 PM 15.8 °F 5.1 °F 6.8 °F 68% 29.84 in 10.0 mi SW 8.1 mph - N/A   Overcast
4:55 PM 14.0 °F 1.2 °F 6.8 °F 73% 29.84 in 10.0 mi WSW 10.4 mph - N/A   Overcast
5:15 PM 14.0 °F 2.9 °F 6.8 °F 73% 29.84 in 10.0 mi WSW 8.1 mph - N/A   Overcast
5:35 PM 14.0 °F 3.9 °F 6.8 °F 73% 29.84 in 10.0 mi WSW 6.9 mph - N/A   Overcast
5:55 PM 14.0 °F 6.5 °F 6.8 °F 73% 29.84 in 10.0 mi SW 4.6 mph - N/A   Overcast
6:15 PM 14.0 °F 6.5 °F 6.8 °F 73% 29.84 in 10.0 mi WSW 4.6 mph - N/A   Overcast
6:35 PM 14.0 °F 6.5 °F 6.8 °F 73% 29.84 in 10.0 mi SW 4.6 mph - N/A   Overcast
6:55 PM 14.0 °F 3.9 °F 5.0 °F 67% 29.84 in 10.0 mi SSW 6.9 mph - N/A   Overcast
7:15 PM 12.2 °F 2.9 °F 5.0 °F 73% 29.83 in 10.0 mi SSW 5.8 mph - N/A   Mostly Cloudy
7:35 PM 12.2 °F 2.9 °F 3.2 °F 67% 29.82 in 10.0 mi SSW 5.8 mph - N/A   Clear
7:55 PM 10.4 °F 2.2 °F 6.8 °F 85% 29.82 in 10.0 mi SSW 4.6 mph - N/A   Clear
8:15 PM 10.4 °F 0.8 °F 3.2 °F 73% 29.83 in 10.0 mi SSW 5.8 mph - N/A   Mostly Cloudy
8:35 PM 12.2 °F 2.9 °F 6.8 °F 79% 29.83 in 10.0 mi SSW 5.8 mph - N/A   Overcast
8:55 PM 12.2 °F 2.9 °F 5.0 °F 73% 29.83 in 10.0 mi SSW 5.8 mph - N/A   Overcast
9:15 PM 12.2 °F 2.9 °F 5.0 °F 73% 29.82 in 10.0 mi SSW 5.8 mph - N/A   Overcast
9:35 PM 10.4 °F -0.4 °F 5.0 °F 79% 29.81 in 10.0 mi SSW 6.9 mph - N/A   Scattered Clouds
9:55 PM 10.4 °F -0.4 °F 3.2 °F 73% 29.81 in 10.0 mi SSW 6.9 mph - N/A   Clear
10:15 PM 10.4 °F -0.4 °F 3.2 °F 73% 29.81 in 10.0 mi South 6.9 mph - N/A   Clear
10:35 PM 10.4 °F -2.4 °F 5.0 °F 79% 29.80 in 10.0 mi South 9.2 mph - N/A   Partly Cloudy
10:55 PM 10.4 °F -1.5 °F 6.8 °F 85% 29.78 in 10.0 mi South 8.1 mph - N/A   Mostly Cloudy
11:15 PM 10.4 °F -0.4 °F 6.8 °F 85% 29.77 in 10.0 mi South 6.9 mph - N/A   Overcast
11:35 PM 10.4 °F -0.4 °F 6.8 °F 85% 29.77 in 10.0 mi South 6.9 mph - N/A   Overcast
11:55 PM 10.4 °F -1.5 °F 5.0 °F 79% 29.76 in 10.0 mi South 8.1 mph - N/A   Overcast